Location: Silent Lake
(44.9206°N, 78.0708°W)
Time: 05:26:40
(UTC-04:00)

YAOGAN 6 - Pass Details

Date: 19 April 2018
Orbit: 466 x 507 km, 97.1° (Epoch: 20 September)

Event Time Altitude Azimuth Distance (km) Brightness Sun altitude
Exits shadow 21:02:36 - 173° (S) 2,390 5.7 -10.6°
Reaches altitude 10° 21:04:19 10° 176° (S) 1,662 5.0 -10.9°
Maximum altitude 21:07:53 65° 260° (W) 541 3.0 -11.4°
Drops below altitude 10° 21:11:31 10° 342° (NNW) 1,702 6.0 -12.0°
Sets 21:13:38 0° 346° (NNW) 2,597 7.0 -12.3°
